• In Österreich
  • Länderverzeichnis
  • Für 7 Tage
  • Wassertemperatur
  • Satellitenkarten
  • Wetterkarte
  • News
  • Widgets
  • user-avatar
    Anmelden

    Stündliche Wetter Kipungo

    Heute, 18 Februar, Sonntag

    Zeit Temperatur Niederschläge Wind Luftdruck Luftfeuchtigkeit
    00:00 +19°C° 0,3 mm 2 m/S 652 mmHg 94%
    01:00 +20°C° 0 mm 1 m/S 653 mmHg 95%
    02:00 +20°C° 0 mm 1 m/S 652 mmHg 96%
    03:00 +19°C° 0 mm 1 m/S 652 mmHg 96%
    04:00 +19°C° 0 mm 1 m/S 652 mmHg 97%
    05:00 +20°C° 0 mm 1 m/S 652 mmHg 96%
    06:00 +18°C° 0 mm 0 m/S 652 mmHg 94%
    07:00 +18°C° 0 mm 0 m/S 653 mmHg 93%
    08:00 +21°C° 0 mm 0 m/S 653 mmHg 83%
    09:00 +25°C° 0 mm 1 m/S 654 mmHg 73%
    10:00 +28°C° 0 mm 1 m/S 654 mmHg 63%
    11:00 +29°C° 0,5 mm 1 m/S 654 mmHg 61%
    12:00 +29°C° 0,5 mm 1 m/S 653 mmHg 59%
    13:00 +29°C° 0 mm 1 m/S 653 mmHg 60%
    14:00 +29°C° 1,7 mm 1 m/S 652 mmHg 62%
    15:00 +29°C° 1,7 mm 1 m/S 652 mmHg 63%
    16:00 +28°C° 1,7 mm 1 m/S 651 mmHg 65%
    17:00 +26°C° 1,2 mm 1 m/S 651 mmHg 72%
    18:00 +25°C° 1,2 mm 2 m/S 651 mmHg 78%
    19:00 +23°C° 1,2 mm 2 m/S 651 mmHg 85%
    20:00 +21°C° 0,8 mm 2 m/S 651 mmHg 88%
    21:00 +20°C° 0,8 mm 2 m/S 652 mmHg 91%
    22:00 +21°C° 0,8 mm 1 m/S 652 mmHg 94%
    23:00 +21°C° 1,1 mm 1 m/S 652 mmHg 94%

    Morgen, 19 Februar, Montag

    Zeit Temperatur Niederschläge Wind Luftdruck Luftfeuchtigkeit
    00:00 +20°C° 1,1 mm 1 m/S 652 mmHg 95%
    01:00 +20°C° 1,1 mm 1 m/S 652 mmHg 96%
    02:00 +20°C° 1,4 mm 1 m/S 652 mmHg 94%
    03:00 +19°C° 1,4 mm 0 m/S 652 mmHg 92%
    04:00 +19°C° 1,4 mm 0 m/S 652 mmHg 91%
    05:00 +21°C° 0,4 mm 1 m/S 652 mmHg 91%
    06:00 +21°C° 0,4 mm 1 m/S 652 mmHg 92%
    07:00 +20°C° 0,4 mm 1 m/S 653 mmHg 92%
    08:00 +22°C° 0,1 mm 1 m/S 653 mmHg 86%
    09:00 +24°C° 0,1 mm 1 m/S 653 mmHg 79%
    10:00 +26°C° 0,1 mm 1 m/S 654 mmHg 72%
    11:00 +27°C° 0 mm 1 m/S 654 mmHg 66%
    12:00 +28°C° 0 mm 1 m/S 654 mmHg 60%
    13:00 +29°C° 0 mm 1 m/S 653 mmHg 54%
    14:00 +29°C° 0,2 mm 1 m/S 653 mmHg 53%
    15:00 +30°C° 0,2 mm 1 m/S 652 mmHg 53%
    16:00 +30°C° 0,2 mm 1 m/S 652 mmHg 53%
    17:00 +28°C° 0 mm 1 m/S 652 mmHg 60%
    18:00 +26°C° 0 mm 1 m/S 652 mmHg 67%
    19:00 +24°C° 0 mm 1 m/S 652 mmHg 75%
    20:00 +23°C° 0,6 mm 1 m/S 652 mmHg 80%
    21:00 +22°C° 0,6 mm 1 m/S 652 mmHg 85%
    22:00 +21°C° 0,6 mm 1 m/S 653 mmHg 90%
    23:00 +21°C° 0,3 mm 1 m/S 652 mmHg 90%

    übermorgen, 20 Februar, Dienstag

    Zeit Temperatur Niederschläge Wind Luftdruck Luftfeuchtigkeit
    00:00 +21°C° 0,3 mm 1 m/S 652 mmHg 91%
    01:00 +21°C° 0,3 mm 1 m/S 652 mmHg 92%
    02:00 +20°C° 0,3 mm 1 m/S 652 mmHg 92%
    03:00 +20°C° 0,3 mm 1 m/S 652 mmHg 92%
    04:00 +20°C° 0,3 mm 1 m/S 651 mmHg 92%
    05:00 +20°C° 0,1 mm 1 m/S 652 mmHg 91%
    06:00 +20°C° 0,1 mm 1 m/S 652 mmHg 90%
    07:00 +21°C° 0,1 mm 1 m/S 653 mmHg 89%
    08:00 +22°C° 0 mm 1 m/S 653 mmHg 79%
    09:00 +24°C° 0 mm 1 m/S 653 mmHg 70%
    10:00 +26°C° 0 mm 2 m/S 654 mmHg 61%
    11:00 +27°C° 0 mm 1 m/S 654 mmHg 56%
    12:00 +29°C° 0 mm 1 m/S 653 mmHg 52%
    13:00 +30°C° 0 mm 1 m/S 653 mmHg 47%
    14:00 +30°C° 0 mm 1 m/S 652 mmHg 50%
    15:00 +29°C° 0 mm 1 m/S 652 mmHg 54%
    16:00 +29°C° 0 mm 1 m/S 651 mmHg 57%
    17:00 +27°C° 0,2 mm 1 m/S 651 mmHg 62%
    18:00 +26°C° 0,2 mm 1 m/S 651 mmHg 67%
    19:00 +24°C° 0,2 mm 1 m/S 651 mmHg 72%
    20:00 +23°C° 0,2 mm 2 m/S 652 mmHg 78%
    21:00 +21°C° 0,2 mm 2 m/S 652 mmHg 83%
    22:00 +20°C° 0,2 mm 2 m/S 652 mmHg 88%
    23:00 +20°C° 0,1 mm 2 m/S 652 mmHg 90%

    21 Februar, Mittwoch

    Zeit Temperatur Niederschläge Wind Luftdruck Luftfeuchtigkeit
    00:00 +20°C° 0,1 mm 2 m/S 652 mmHg 92%
    01:00 +19°C° 0,1 mm 2 m/S 652 mmHg 94%
    02:00 +19°C° 0,2 mm 2 m/S 651 mmHg 94%
    03:00 +19°C° 0,2 mm 2 m/S 651 mmHg 94%
    04:00 +19°C° 0,2 mm 2 m/S 651 mmHg 94%
    05:00 +19°C° 0 mm 2 m/S 651 mmHg 94%
    06:00 +19°C° 0 mm 2 m/S 652 mmHg 93%
    07:00 +20°C° 0 mm 1 m/S 652 mmHg 92%
    08:00 +22°C° 0 mm 1 m/S 653 mmHg 82%
    09:00 +24°C° 0 mm 2 m/S 654 mmHg 71%
    10:00 +27°C° 0 mm 2 m/S 654 mmHg 61%
    11:00 +27°C° 0 mm 2 m/S 654 mmHg 58%
    12:00 +28°C° 0 mm 2 m/S 653 mmHg 56%
    13:00 +28°C° 0 mm 2 m/S 653 mmHg 53%
    14:00 +27°C° 0,2 mm 2 m/S 652 mmHg 59%
    15:00 +26°C° 0,2 mm 3 m/S 651 mmHg 64%
    16:00 +25°C° 0,2 mm 3 m/S 651 mmHg 69%
    17:00 +22°C° 0,4 mm 3 m/S 651 mmHg 76%
    18:00 +21°C° 0,4 mm 3 m/S 651 mmHg 82%
    19:00 +19°C° 0,4 mm 2 m/S 651 mmHg 88%
    20:00 +19°C° 0 mm 2 m/S 651 mmHg 89%
    21:00 +19°C° 0 mm 2 m/S 651 mmHg 89%
    22:00 +18°C° 0 mm 2 m/S 652 mmHg 90%
    23:00 +18°C° 0 mm 2 m/S 651 mmHg 91%

    22 Februar, Donnerstag

    Zeit Temperatur Niederschläge Wind Luftdruck Luftfeuchtigkeit
    00:00 +18°C° 0 mm 2 m/S 651 mmHg 92%
    01:00 +18°C° 0 mm 2 m/S 651 mmHg 93%
    02:00 +18°C° 0 mm 2 m/S 651 mmHg 94%
    03:00 +19°C° 0 mm 1 m/S 650 mmHg 94%
    04:00 +19°C° 0 mm 1 m/S 650 mmHg 94%
    05:00 +19°C° 0 mm 1 m/S 651 mmHg 93%
    06:00 +19°C° 0 mm 1 m/S 651 mmHg 92%
    07:00 +20°C° 0 mm 1 m/S 652 mmHg 91%
    08:00 +22°C° 0 mm 1 m/S 652 mmHg 80%
    09:00 +24°C° 0 mm 1 m/S 653 mmHg 70%
    10:00 +26°C° 0 mm 2 m/S 653 mmHg 60%
    11:00 +27°C° 0 mm 1 m/S 653 mmHg 55%
    12:00 +29°C° 0 mm 1 m/S 652 mmHg 50%
    13:00 +30°C° 0 mm 1 m/S 652 mmHg 45%
    14:00 +30°C° 0,2 mm 2 m/S 651 mmHg 49%
    15:00 +29°C° 0,2 mm 2 m/S 651 mmHg 53%
    16:00 +28°C° 0,2 mm 2 m/S 650 mmHg 58%
    17:00 +26°C° 0,4 mm 2 m/S 650 mmHg 65%
    18:00 +24°C° 0,4 mm 2 m/S 650 mmHg 72%
    19:00 +21°C° 0,4 mm 2 m/S 650 mmHg 79%
    20:00 +21°C° 0 mm 2 m/S 650 mmHg 81%
    21:00 +20°C° 0 mm 2 m/S 650 mmHg 83%
    22:00 +20°C° 0 mm 2 m/S 650 mmHg 85%
    23:00 +20°C° 0 mm 2 m/S 650 mmHg 87%

    23 Februar, Freitag

    Zeit Temperatur Niederschläge Wind Luftdruck Luftfeuchtigkeit
    00:00 +20°C° 0 mm 1 m/S 650 mmHg 89%
    01:00 +20°C° 0 mm 1 m/S 649 mmHg 90%
    02:00 +20°C° 0 mm 1 m/S 649 mmHg 91%
    03:00 +19°C° 0 mm 1 m/S 649 mmHg 92%
    04:00 +19°C° 0 mm 1 m/S 649 mmHg 92%
    05:00 +19°C° 0 mm 1 m/S 650 mmHg 91%
    06:00 +20°C° 0 mm 1 m/S 650 mmHg 90%
    07:00 +20°C° 0 mm 1 m/S 650 mmHg 89%
    08:00 +22°C° 0,1 mm 1 m/S 651 mmHg 80%
    09:00 +25°C° 0,1 mm 1 m/S 651 mmHg 71%
    10:00 +27°C° 0,1 mm 1 m/S 652 mmHg 62%
    11:00 +28°C° 0,1 mm 1 m/S 652 mmHg 56%
    12:00 +30°C° 0,1 mm 1 m/S 651 mmHg 51%
    13:00 +31°C° 0,1 mm 2 m/S 651 mmHg 46%
    14:00 +30°C° 0,5 mm 2 m/S 650 mmHg 51%
    15:00 +29°C° 0,5 mm 2 m/S 650 mmHg 56%
    16:00 +28°C° 0,5 mm 2 m/S 649 mmHg 61%
    17:00 +27°C° 0,5 mm 2 m/S 649 mmHg 67%
    18:00 +25°C° 0,5 mm 3 m/S 650 mmHg 72%
    19:00 +22°C° 0,5 mm 3 m/S 650 mmHg 78%
    20:00 +21°C° 0,1 mm 3 m/S 650 mmHg 82%
    21:00 +21°C° 0,1 mm 3 m/S 650 mmHg 85%
    22:00 +20°C° 0,1 mm 3 m/S 651 mmHg 89%
    23:00 +20°C° 0 mm 2 m/S 650 mmHg 91%
    Mehr zeigen